Change the Weather History Date:

Monday, October 28, 2013

  Actual Average Record
Temperature  
Mean Temperature 60 °F -  
Max Temperature 69 °F 73 °F 88 °F (1943)
Min Temperature 51 °F 41 °F 22 °F (1970)
Degree Days  
Heating Degree Days 5    
Growing Degree Days 10 (Base 50)    
Moisture  
Dew Point 31 °F    
Average Humidity 36    
Maximum Humidity 67    
Minimum Humidity 20    
Precipitation  
Precipitation 0.00 in - - ()
Sea Level Pressure  
Sea Level Pressure 29.64 in    
Wind  
Wind Speed 16 mph (South)    
Max Wind Speed 41 mph    
Max Gust Speed 50 mph    
Visibility 10 miles    
Events      
Averages and records for this station are not official NWS values.
T = Trace of Precipitation, MM = Missing Value Source: NWS Daily Summary

Daily Weather History Graph

Daily Weather History Graph

Search for Another Location

Airport or City:

Trip Planner

Search our weather history database for the weather conditions in past years. The results will help you decide how hot, cold, wet, or windy it might be!

Date:

Astronomy

Oct. 28, 2013 Rise Set
Actual Time 7:54 AM MDT 6:40 PM MDT
Civil Twilight 7:28 AM MDT 7:07 PM MDT
Nautical Twilight 6:57 AM MDT 7:38 PM MDT
Astronomical Twilight 6:27 AM MDT 8:08 PM MDT
Moon 1:59 AM MDT (10/28) 3:17 PM MDT (10/28)
Length of Visible Light 11h 39m
Length of Day
10h 45m
Waning Crescent, 33% of the Moon is Illuminated
Oct 28
Waning Crescent
Nov 3
New
Nov 9
First Quarter
Nov 17
Full
Nov 25
Last Quarter

Hourly Weather History & Observations

Time (MDT) Temp. Dew Point Humidity Pressure Visibility Wind Dir Wind Speed Gust Speed Precip Events Conditions
12:15 AM 64.4 °F 24.8 °F 22% 29.63 in 10.0 mi ESE 15.0 mph - N/A   Clear
12:35 AM 64.4 °F 24.8 °F 22% 29.62 in 10.0 mi SE 11.5 mph - N/A   Clear
12:55 AM 64.4 °F 24.8 °F 22% 29.62 in 10.0 mi South 4.6 mph - N/A   Clear
1:15 AM 64.4 °F 24.8 °F 22% 29.62 in 10.0 mi SSE 9.2 mph - N/A   Clear
1:35 AM 64.4 °F 24.8 °F 22% 29.61 in 10.0 mi SSE 15.0 mph 19.6 mph N/A   Clear
1:55 AM 64.4 °F 24.8 °F 22% 29.61 in 10.0 mi SSE 15.0 mph - N/A   Clear
2:15 AM 64.4 °F 24.8 °F 22% 29.61 in 10.0 mi SSE 13.8 mph - N/A   Clear
2:35 AM 62.6 °F 24.8 °F 24% 29.61 in 10.0 mi SSE 15.0 mph - N/A   Clear
2:55 AM 62.6 °F 24.8 °F 24% 29.61 in 10.0 mi SSE 15.0 mph - N/A   Clear
3:15 AM 62.6 °F 24.8 °F 24% 29.59 in 10.0 mi SSE 13.8 mph - N/A   Clear
3:35 AM 60.8 °F 24.8 °F 25% 29.59 in 10.0 mi SSE 15.0 mph - N/A   Clear
3:55 AM 60.8 °F 24.8 °F 25% 29.59 in 10.0 mi SSE 13.8 mph - N/A   Clear
4:15 AM 60.8 °F 24.8 °F 25% 29.59 in 10.0 mi SSE 11.5 mph - N/A   Clear
4:35 AM 60.8 °F 24.8 °F 25% 29.58 in 10.0 mi SSE 13.8 mph - N/A   Clear
4:55 AM 60.8 °F 24.8 °F 25% 29.57 in 10.0 mi SSE 13.8 mph - N/A   Clear
5:15 AM 59.0 °F 24.8 °F 27% 29.58 in 10.0 mi SSE 12.7 mph - N/A   Clear
5:35 AM 57.2 °F 24.8 °F 29% 29.57 in 10.0 mi SE 12.7 mph - N/A   Clear
5:55 AM 55.4 °F 24.8 °F 31% 29.57 in 10.0 mi SE 11.5 mph - N/A   Clear
6:55 AM 62.6 °F 26.6 °F 26% 29.56 in 10.0 mi SE 19.6 mph - N/A   Clear
7:15 AM 62.6 °F 26.6 °F 26% 29.57 in 10.0 mi SE 12.7 mph - N/A   Clear
7:35 AM 62.6 °F 26.6 °F 26% 29.57 in 10.0 mi SE 12.7 mph - N/A   Clear
7:55 AM 62.6 °F 26.6 °F 26% 29.57 in 10.0 mi South 15.0 mph 21.9 mph N/A   Clear
8:15 AM 64.4 °F 26.6 °F 24% 29.57 in 10.0 mi SE 15.0 mph 27.6 mph N/A   Clear
8:35 AM 64.4 °F 26.6 °F 24% 29.57 in 10.0 mi SE 18.4 mph 28.8 mph N/A   Clear
8:55 AM 64.4 °F 26.6 °F 24% 29.58 in 10.0 mi ESE 12.7 mph 24.2 mph N/A   Clear
9:15 AM 64.4 °F 26.6 °F 24% 29.60 in 10.0 mi SSE 9.2 mph 23.0 mph N/A   Clear
9:35 AM 64.4 °F 28.4 °F 26% 29.61 in 10.0 mi South 11.5 mph 23.0 mph N/A   Clear
9:55 AM 66.2 °F 26.6 °F 23% 29.62 in 10.0 mi SSW 20.7 mph 35.7 mph N/A   Clear
10:15 AM 66.2 °F 26.6 °F 23% 29.62 in 4.0 mi SSW 27.6 mph 49.5 mph N/A   Partly Cloudy
10:35 AM 68.0 °F 26.6 °F 21% 29.61 in 10.0 mi South 35.7 mph 44.9 mph N/A   Partly Cloudy
10:55 AM 68.0 °F 26.6 °F 21% 29.62 in 4.0 mi SSW 35.7 mph 49.5 mph N/A   Partly Cloudy
11:15 AM 68.0 °F 24.8 °F 20% 29.63 in 2.5 mi SSW 34.5 mph 47.2 mph N/A   Partly Cloudy
11:55 AM 68.0 °F 26.6 °F 21% 29.63 in 9.0 mi SSW 26.5 mph 40.3 mph N/A   Clear
12:15 PM 69.8 °F 26.6 °F 20% 29.63 in 7.0 mi SW 35.7 mph 43.7 mph N/A   Clear
12:35 PM 69.8 °F 26.6 °F 20% 29.62 in 3.0 mi SW 41.4 mph 49.5 mph N/A   Clear
12:55 PM 69.8 °F 26.6 °F 20% 29.63 in 8.0 mi SW 35.7 mph 47.2 mph N/A   Clear
1:15 PM 68.0 °F 28.4 °F 23% 29.63 in 10.0 mi SW 27.6 mph 40.3 mph N/A   Clear
1:55 PM 64.4 °F 30.2 °F 28% 29.63 in 10.0 mi WSW 19.6 mph - N/A   Clear
2:35 PM 64.4 °F 35.6 °F 34% 29.62 in 10.0 mi WSW 13.8 mph 25.3 mph N/A   Clear
2:55 PM 62.6 °F 41.0 °F 45% 29.62 in 10.0 mi WSW 20.7 mph 32.2 mph N/A   Scattered Clouds
3:15 PM 60.8 °F 37.4 °F 42% 29.62 in 10.0 mi SW 25.3 mph 39.1 mph N/A   Scattered Clouds
3:35 PM 60.8 °F 37.4 °F 42% 29.63 in 10.0 mi SSW 31.1 mph 40.3 mph N/A   Scattered Clouds
3:55 PM 60.8 °F 37.4 °F 42% 29.63 in 10.0 mi SSW 40.3 mph 43.7 mph N/A   Mostly Cloudy
4:15 PM 53.6 °F 42.8 °F 67% 29.67 in 7.0 mi SSW 32.2 mph 41.4 mph N/A   Overcast
4:35 PM 53.6 °F 42.8 °F 67% 29.68 in 10.0 mi South 13.8 mph - N/A   Overcast
4:55 PM 55.4 °F 44.6 °F 67% 29.66 in 10.0 mi South 8.1 mph - N/A   Scattered Clouds
5:15 PM 57.2 °F 44.6 °F 63% 29.65 in 10.0 mi SE 8.1 mph - N/A   Clear
5:35 PM 59.0 °F 42.8 °F 55% 29.66 in 10.0 mi South 10.4 mph - N/A   Clear
5:55 PM 59.0 °F 42.8 °F 55% 29.66 in 10.0 mi SSW 6.9 mph - N/A   Scattered Clouds
6:15 PM 57.2 °F 42.8 °F 59% 29.66 in 10.0 mi SSE 10.4 mph - N/A   Scattered Clouds
6:35 PM 57.2 °F 41.0 °F 55% 29.67 in 10.0 mi SSE 15.0 mph 20.7 mph N/A   Mostly Cloudy
6:55 PM 55.4 °F 41.0 °F 58% 29.68 in 10.0 mi SSE 10.4 mph - N/A   Mostly Cloudy
7:15 PM 55.4 °F 39.2 °F 54% 29.69 in 10.0 mi SSW 16.1 mph 25.3 mph N/A   Mostly Cloudy
7:35 PM 57.2 °F 33.8 °F 41% 29.70 in 10.0 mi SSW 11.5 mph - N/A   Mostly Cloudy
7:55 PM 55.4 °F 35.6 °F 47% 29.70 in 10.0 mi WSW 19.6 mph 23.0 mph N/A   Mostly Cloudy
8:15 PM 53.6 °F 37.4 °F 54% 29.73 in 10.0 mi South 10.4 mph - N/A   Mostly Cloudy
8:35 PM 53.6 °F 35.6 °F 51% 29.74 in 10.0 mi SSW 11.5 mph - N/A   Mostly Cloudy
8:55 PM 53.6 °F 35.6 °F 51% 29.74 in 10.0 mi SSE 9.2 mph - N/A   Mostly Cloudy
9:15 PM 53.6 °F 35.6 °F 51% 29.74 in 10.0 mi SSE 6.9 mph - N/A   Mostly Cloudy
9:35 PM 53.6 °F 35.6 °F 51% 29.73 in 10.0 mi Calm Calm - N/A   Mostly Cloudy
9:55 PM 51.8 °F 35.6 °F 54% 29.75 in 10.0 mi SSE 9.2 mph - N/A   Mostly Cloudy
10:15 PM 53.6 °F 35.6 °F 51% 29.77 in 10.0 mi South 9.2 mph - N/A   Mostly Cloudy
10:35 PM 51.8 °F 35.6 °F 54% 29.79 in 10.0 mi SW 18.4 mph 27.6 mph N/A   Overcast
10:55 PM 51.8 °F 37.4 °F 58% 29.78 in 10.0 mi South 11.5 mph - N/A   Mostly Cloudy
11:15 PM 51.8 °F 35.6 °F 54% 29.79 in 10.0 mi SSE 8.1 mph - N/A   Overcast
11:35 PM 51.8 °F 35.6 °F 54% 29.80 in 10.0 mi SE 8.1 mph - N/A   Overcast
11:55 PM 51.8 °F 37.4 °F 58% 29.81 in 10.0 mi East 9.2 mph - N/A   Overcast